TimeEDT,TemperatureF,Dew PointF,Humidity,Sea Level PressureIn,VisibilityMPH,Wind Direction,Wind SpeedMPH,Gust SpeedMPH,PrecipitationIn,Events,Conditions,WindDirDegrees,DateUTC
12:53 AM,39.9,30.9,70,29.85,10.0,NE,5.8,-,N/A,,Overcast,40,2012-11-02 04:53:00
1:53 AM,39.0,30.9,73,29.86,10.0,NE,3.5,-,N/A,,Mostly Cloudy,50,2012-11-02 05:53:00
2:53 AM,37.9,30.0,73,29.85,10.0,Calm,Calm,-,N/A,,Scattered Clouds,0,2012-11-02 06:53:00
3:53 AM,37.9,28.9,70,29.87,10.0,Calm,Calm,-,N/A,,Mostly Cloudy,0,2012-11-02 07:53:00
4:53 AM,37.9,28.9,70,29.88,10.0,Calm,Calm,-,N/A,,Overcast,0,2012-11-02 08:53:00
5:53 AM,37.0,27.0,67,29.89,10.0,WNW,4.6,-,N/A,,Scattered Clouds,300,2012-11-02 09:53:00
6:53 AM,34.0,27.0,75,29.92,10.0,NNW,8.1,-,N/A,,Clear,330,2012-11-02 10:53:00
7:53 AM,34.0,28.0,79,29.94,10.0,NW,4.6,-,N/A,,Clear,320,2012-11-02 11:53:00
8:53 AM,35.1,28.9,78,29.97,10.0,WNW,4.6,-,N/A,,Clear,300,2012-11-02 12:53:00
9:53 AM,39.0,33.1,79,30.00,10.0,NW,6.9,-,N/A,,Clear,320,2012-11-02 13:53:00
10:53 AM,43.0,28.9,58,30.01,10.0,North,13.8,-,N/A,,Clear,350,2012-11-02 14:53:00
11:53 AM,45.0,28.9,53,30.01,10.0,North,12.7,-,N/A,,Clear,350,2012-11-02 15:53:00
12:53 PM,46.0,30.9,56,30.03,10.0,North,10.4,-,N/A,,Scattered Clouds,350,2012-11-02 16:53:00
1:53 PM,46.9,30.9,54,30.03,10.0,NW,11.5,-,N/A,,Mostly Cloudy,320,2012-11-02 17:53:00
2:53 PM,48.0,32.0,54,30.02,10.0,NW,9.2,18.4,N/A,,Mostly Cloudy,320,2012-11-02 18:53:00
3:53 PM,48.0,30.9,52,30.03,10.0,NNW,9.2,-,N/A,,Scattered Clouds,340,2012-11-02 19:53:00
4:53 PM,46.0,30.9,56,30.04,10.0,NNW,9.2,-,N/A,,Scattered Clouds,330,2012-11-02 20:53:00
5:53 PM,46.9,30.9,54,30.04,10.0,North,10.4,-,N/A,,Mostly Cloudy,350,2012-11-02 21:53:00
6:53 PM,44.1,32.0,63,30.06,10.0,North,5.8,-,N/A,,Overcast,360,2012-11-02 22:53:00
7:53 PM,42.1,33.1,70,30.08,10.0,NNW,4.6,-,N/A,,Overcast,330,2012-11-02 23:53:00
8:53 PM,42.1,33.1,70,30.08,10.0,NW,4.6,-,N/A,,Overcast,310,2012-11-03 00:53:00
9:53 PM,42.1,33.1,70,30.09,10.0,NW,5.8,-,N/A,,Overcast,320,2012-11-03 01:53:00
10:53 PM,39.9,30.9,70,30.10,10.0,North,9.2,-,N/A,,Partly Cloudy,360,2012-11-03 02:53:00
11:53 PM,37.0,30.0,76,30.11,10.0,Calm,Calm,-,N/A,,Clear,0,2012-11-03 03:53:00